TimePST,TemperatureF,Dew PointF,Humidity,Sea Level PressureIn,VisibilityMPH,Wind Direction,Wind SpeedMPH,Gust SpeedMPH,PrecipitationIn,Events,Conditions,WindDirDegrees,DateUTC
12:56 AM,34.0,16.0,48,30.08,10.0,NW,15.0,-,N/A,,Clear,310,2012-12-19 08:56:00
1:56 AM,32.0,16.0,52,30.11,10.0,WNW,10.4,-,N/A,,Clear,290,2012-12-19 09:56:00
2:56 AM,32.0,16.0,52,30.13,10.0,Calm,Calm,-,N/A,,Clear,0,2012-12-19 10:56:00
3:56 AM,33.1,17.1,52,30.16,10.0,NW,6.9,16.1,N/A,,Clear,310,2012-12-19 11:56:00
4:56 AM,33.1,18.0,54,30.19,10.0,WSW,9.2,-,N/A,,Clear,240,2012-12-19 12:56:00
5:56 AM,30.9,19.0,61,30.24,10.0,Calm,Calm,-,N/A,,Clear,0,2012-12-19 13:56:00
6:56 AM,28.9,17.1,61,30.26,10.0,Calm,Calm,-,N/A,,Clear,0,2012-12-19 14:56:00
7:56 AM,30.9,18.0,59,30.29,10.0,Calm,Calm,-,N/A,,Clear,0,2012-12-19 15:56:00
8:56 AM,36.0,19.9,52,30.31,10.0,East,3.5,-,N/A,,Clear,90,2012-12-19 16:56:00
9:56 AM,39.9,16.0,38,30.32,10.0,East,9.2,-,N/A,,Clear,80,2012-12-19 17:56:00
10:56 AM,43.0,10.9,27,30.30,10.0,ENE,13.8,-,N/A,,Clear,60,2012-12-19 18:56:00
11:56 AM,45.0,7.0,21,30.30,10.0,ENE,16.1,19.6,N/A,,Clear,70,2012-12-19 19:56:00
12:56 PM,46.9,6.1,19,30.29,10.0,ENE,13.8,19.6,N/A,,Clear,60,2012-12-19 20:56:00
1:56 PM,48.0,3.9,16,30.28,10.0,ENE,12.7,23.0,N/A,,Clear,60,2012-12-19 21:56:00
2:56 PM,48.0,1.0,14,30.29,10.0,East,15.0,-,N/A,,Clear,80,2012-12-19 22:56:00
3:56 PM,46.9,1.0,15,30.30,10.0,ENE,13.8,-,N/A,,Clear,70,2012-12-19 23:56:00
4:56 PM,39.9,1.9,20,30.32,10.0,ENE,4.6,-,N/A,,Clear,60,2012-12-20 00:56:00
5:56 PM,36.0,8.1,31,30.35,10.0,ENE,3.5,-,N/A,,Clear,60,2012-12-20 01:56:00
6:56 PM,32.0,8.1,37,30.37,10.0,ENE,3.5,-,N/A,,Clear,70,2012-12-20 02:56:00
7:56 PM,28.9,3.9,35,30.39,10.0,Calm,Calm,-,N/A,,Clear,0,2012-12-20 03:56:00
8:56 PM,24.1,3.0,40,30.42,10.0,WNW,5.8,-,N/A,,Clear,290,2012-12-20 04:56:00
9:56 PM,21.0,1.9,44,30.43,10.0,West,6.9,-,N/A,,Clear,280,2012-12-20 05:56:00
10:56 PM,19.0,1.0,46,30.44,10.0,NNW,3.5,-,N/A,,Clear,340,2012-12-20 06:56:00
11:56 PM,19.9,1.0,44,30.43,10.0,WSW,4.6,-,N/A,,Clear,250,2012-12-20 07:56:00